• In Hungary
  • List of Countries
  • For 7 days
  • Water Temperature
  • Satellite Maps
  • Weather Map
  • News
  • Weather Widgets
  • user-avatar
    Login

    Hourly Weather Potereba

    Today, 20 November, Monday

    Time Temperature Precipitation Wind Pressure Humidity
    00:00 -1°C° 0 mm 2 mps 734 mmHg 86%
    01:00 -1°C° 0 mm 3 mps 734 mmHg 87%
    02:00 -1°C° 0 mm 2 mps 734 mmHg 87%
    03:00 -1°C° 0 mm 2 mps 734 mmHg 87%
    04:00 -1°C° 0 mm 3 mps 734 mmHg 87%
    05:00 -1°C° 0 mm 3 mps 734 mmHg 87%
    06:00 -1°C° 0 mm 3 mps 734 mmHg 88%
    07:00 -1°C° 0 mm 3 mps 734 mmHg 89%
    08:00 -1°C° 0 mm 3 mps 734 mmHg 88%
    09:00 0°C° 0 mm 3 mps 734 mmHg 82%
    10:00 0°C° 0 mm 4 mps 734 mmHg 76%
    11:00 +3°C° 0 mm 4 mps 734 mmHg 71%
    12:00 +3°C° 0 mm 4 mps 734 mmHg 70%
    13:00 +3°C° 0 mm 4 mps 734 mmHg 70%
    14:00 +2°C° 0 mm 5 mps 734 mmHg 69%
    15:00 +1°C° 0 mm 4 mps 734 mmHg 73%
    16:00 0°C° 0 mm 4 mps 734 mmHg 77%
    17:00 0°C° 0 mm 4 mps 734 mmHg 81%
    18:00 0°C° 0 mm 4 mps 734 mmHg 82%
    19:00 0°C° 0 mm 5 mps 735 mmHg 83%
    20:00 0°C° 0 mm 5 mps 735 mmHg 83%
    21:00 -1°C° 0 mm 5 mps 735 mmHg 83%
    22:00 -2°C° 0 mm 5 mps 735 mmHg 83%
    23:00 -2°C° 0 mm 5 mps 735 mmHg 83%

    Tomorrow, 21 November, Tuesday

    Time Temperature Precipitation Wind Pressure Humidity
    00:00 -2°C° 0 mm 4 mps 735 mmHg 83%
    01:00 -3°C° 0 mm 4 mps 735 mmHg 84%
    02:00 -2°C° 0 mm 3 mps 736 mmHg 85%
    03:00 -2°C° 0 mm 3 mps 736 mmHg 84%
    04:00 -2°C° 0 mm 3 mps 736 mmHg 83%
    05:00 -2°C° 0 mm 3 mps 736 mmHg 82%
    06:00 -2°C° 0 mm 3 mps 736 mmHg 85%
    07:00 -2°C° 0 mm 3 mps 736 mmHg 88%
    08:00 -2°C° 0 mm 3 mps 736 mmHg 91%
    09:00 -2°C° 0 mm 3 mps 736 mmHg 86%
    10:00 -2°C° 0 mm 4 mps 736 mmHg 81%
    11:00 -1°C° 0 mm 4 mps 737 mmHg 76%
    12:00 0°C° 0 mm 4 mps 736 mmHg 75%
    13:00 0°C° 0 mm 4 mps 736 mmHg 73%
    14:00 0°C° 0 mm 4 mps 736 mmHg 72%
    15:00 0°C° 0 mm 4 mps 736 mmHg 75%
    16:00 0°C° 0 mm 3 mps 737 mmHg 78%
    17:00 0°C° 0 mm 3 mps 737 mmHg 81%
    18:00 0°C° 0 mm 3 mps 737 mmHg 82%
    19:00 -1°C° 0 mm 3 mps 737 mmHg 83%
    20:00 -1°C° 0 mm 3 mps 738 mmHg 84%
    21:00 -1°C° 0 mm 2 mps 738 mmHg 86%
    22:00 -2°C° 0 mm 2 mps 738 mmHg 88%
    23:00 -2°C° 0 mm 2 mps 738 mmHg 90%

    Day after tomorrow, 22 November, Wednesday

    Time Temperature Precipitation Wind Pressure Humidity
    00:00 -3°C° 0 mm 2 mps 738 mmHg 90%
    01:00 -3°C° 0 mm 2 mps 738 mmHg 91%
    02:00 -3°C° 0 mm 2 mps 738 mmHg 91%
    03:00 -1°C° 0 mm 1 mps 739 mmHg 91%
    04:00 -1°C° 0 mm 1 mps 739 mmHg 91%
    05:00 -1°C° 0 mm 1 mps 739 mmHg 91%
    06:00 -1°C° 0 mm 1 mps 739 mmHg 91%
    07:00 -1°C° 0 mm 1 mps 739 mmHg 90%
    08:00 -2°C° 0 mm 0 mps 739 mmHg 90%
    09:00 0°C° 0 mm 1 mps 739 mmHg 84%
    10:00 +1°C° 0 mm 1 mps 740 mmHg 78%
    11:00 +2°C° 0 mm 1 mps 740 mmHg 72%
    12:00 +2°C° 0 mm 1 mps 740 mmHg 70%
    13:00 +3°C° 0 mm 1 mps 740 mmHg 68%
    14:00 +3°C° 0 mm 1 mps 740 mmHg 67%
    15:00 +3°C° 0 mm 1 mps 740 mmHg 70%
    16:00 +1°C° 0 mm 2 mps 740 mmHg 74%
    17:00 +1°C° 0 mm 2 mps 740 mmHg 77%
    18:00 +1°C° 0.2 mm 2 mps 740 mmHg 78%
    19:00 +1°C° 0.2 mm 2 mps 740 mmHg 79%
    20:00 -1°C° 0.2 mm 3 mps 740 mmHg 80%
    21:00 -1°C° 0.1 mm 3 mps 740 mmHg 82%
    22:00 -1°C° 0.1 mm 3 mps 740 mmHg 83%
    23:00 -1°C° 0.1 mm 3 mps 740 mmHg 85%

    23 November, Thursday

    Time Temperature Precipitation Wind Pressure Humidity
    00:00 -1°C° 0.1 mm 3 mps 740 mmHg 86%
    01:00 0°C° 0.1 mm 3 mps 740 mmHg 87%
    02:00 0°C° 0.1 mm 3 mps 740 mmHg 88%
    03:00 0°C° 0 mm 3 mps 741 mmHg 88%
    04:00 0°C° 0 mm 3 mps 741 mmHg 89%
    05:00 0°C° 0 mm 3 mps 741 mmHg 89%
    06:00 0°C° 0 mm 3 mps 741 mmHg 89%
    07:00 0°C° 0 mm 3 mps 741 mmHg 90%
    08:00 0°C° 0 mm 3 mps 742 mmHg 90%
    09:00 0°C° 0 mm 3 mps 742 mmHg 88%
    10:00 +1°C° 0 mm 3 mps 742 mmHg 86%
    11:00 +1°C° 0 mm 3 mps 742 mmHg 85%
    12:00 +2°C° 0 mm 3 mps 742 mmHg 84%
    13:00 +2°C° 0 mm 3 mps 742 mmHg 83%
    14:00 +3°C° 0 mm 3 mps 742 mmHg 83%
    15:00 +2°C° 0 mm 3 mps 743 mmHg 86%
    16:00 +1°C° 0 mm 3 mps 743 mmHg 89%
    17:00 0°C° 0 mm 3 mps 743 mmHg 92%
    18:00 0°C° 0 mm 3 mps 743 mmHg 92%
    19:00 0°C° 0 mm 3 mps 743 mmHg 92%
    20:00 0°C° 0 mm 3 mps 743 mmHg 93%
    21:00 0°C° 0 mm 3 mps 743 mmHg 92%
    22:00 0°C° 0 mm 3 mps 743 mmHg 92%
    23:00 0°C° 0 mm 3 mps 743 mmHg 92%

    24 November, Friday

    Time Temperature Precipitation Wind Pressure Humidity
    00:00 0°C° 0 mm 3 mps 743 mmHg 92%
    01:00 0°C° 0 mm 3 mps 743 mmHg 92%
    02:00 0°C° 0 mm 3 mps 743 mmHg 92%
    03:00 0°C° 0 mm 3 mps 743 mmHg 92%
    04:00 0°C° 0 mm 3 mps 743 mmHg 92%
    05:00 -1°C° 0 mm 3 mps 743 mmHg 92%
    06:00 -1°C° 0 mm 2 mps 744 mmHg 92%
    07:00 +1°C° 0 mm 2 mps 744 mmHg 92%
    08:00 +1°C° 0 mm 2 mps 744 mmHg 93%
    09:00 +2°C° 0 mm 2 mps 744 mmHg 90%
    10:00 +3°C° 0 mm 2 mps 744 mmHg 87%
    11:00 +4°C° 0 mm 2 mps 745 mmHg 84%
    12:00 +5°C° 0 mm 2 mps 745 mmHg 84%
    13:00 +5°C° 0 mm 2 mps 744 mmHg 83%
    14:00 +6°C° 0 mm 2 mps 744 mmHg 82%
    15:00 +5°C° 0 mm 2 mps 744 mmHg 85%
    16:00 +4°C° 0 mm 2 mps 744 mmHg 88%
    17:00 +3°C° 0 mm 2 mps 744 mmHg 91%
    18:00 +3°C° 0 mm 2 mps 745 mmHg 91%
    19:00 +3°C° 0 mm 2 mps 745 mmHg 91%
    20:00 +3°C° 0 mm 2 mps 745 mmHg 91%
    21:00 +3°C° 0 mm 2 mps 745 mmHg 91%
    22:00 +3°C° 0 mm 2 mps 745 mmHg 91%
    23:00 +3°C° 0 mm 2 mps 745 mmHg 90%

    25 November, Saturday

    Time Temperature Precipitation Wind Pressure Humidity
    00:00 +3°C° 0 mm 2 mps 745 mmHg 90%
    01:00 +3°C° 0 mm 2 mps 745 mmHg 89%
    02:00 +3°C° 0 mm 2 mps 745 mmHg 89%
    03:00 +2°C° 0 mm 2 mps 745 mmHg 88%
    04:00 +2°C° 0 mm 2 mps 745 mmHg 87%
    05:00 +2°C° 0 mm 2 mps 745 mmHg 87%
    06:00 +1°C° 0 mm 3 mps 745 mmHg 86%
    07:00 +1°C° 0 mm 3 mps 745 mmHg 86%
    08:00 +1°C° 0 mm 3 mps 745 mmHg 86%
    09:00 +2°C° 0 mm 3 mps 745 mmHg 82%
    10:00 +4°C° 0 mm 3 mps 745 mmHg 77%
    11:00 +5°C° 0 mm 4 mps 745 mmHg 73%
    12:00 +5°C° 0 mm 3 mps 744 mmHg 73%
    13:00 +7°C° 0 mm 3 mps 744 mmHg 72%
    14:00 +7°C° 0 mm 3 mps 744 mmHg 71%
    15:00 +5°C° 0 mm 3 mps 744 mmHg 75%
    16:00 +5°C° 0 mm 3 mps 743 mmHg 78%
    17:00 +4°C° 0 mm 3 mps 743 mmHg 82%
    18:00 +3°C° 0 mm 3 mps 743 mmHg 82%
    19:00 +3°C° 0 mm 3 mps 743 mmHg 81%
    20:00 +3°C° 0 mm 3 mps 743 mmHg 81%
    21:00 +3°C° 0 mm 3 mps 743 mmHg 81%
    22:00 +2°C° 0 mm 3 mps 742 mmHg 81%
    23:00 +2°C° 0 mm 3 mps 742 mmHg 81%
    Show more